Estación de C. Llollinco
Ultimos registro cada 15 minutos 31
| N° | Estación | Fecha / Hora | Temperatura | Humedad | Lluvia | Velocidad | Dirección | Radiación | Presion |
| 31 | C. Llollinco | 05-05-2026 07:30 | 11,7 | 98,2 | 0 | 0 | 42 | 0 | 0 |
| 30 | C. Llollinco | 05-05-2026 07:15 | 11,7 | 98,3 | 0 | 0 | 164 | 0 | 0 |
| 29 | C. Llollinco | 05-05-2026 07:00 | 11,7 | 98,3 | 0,1 | 0,1 | 345 | 0 | 0 |
| 28 | C. Llollinco | 05-05-2026 06:45 | 11,7 | 98,4 | 0 | 0 | 3 | 0 | 0 |
| 27 | C. Llollinco | 05-05-2026 06:30 | 11,7 | 98,4 | 0,1 | 0 | 0 | 0 | 0 |
| 26 | C. Llollinco | 05-05-2026 06:15 | 11,6 | 98,3 | 0,3 | 0,1 | 192 | 0 | 0 |
| 25 | C. Llollinco | 05-05-2026 06:00 | 11,6 | 98,3 | 0,1 | 0 | 214 | 0 | 0 |
| 24 | C. Llollinco | 05-05-2026 05:45 | 11,6 | 98,3 | 0,1 | 0 | 0 | 0 | 0 |
| 23 | C. Llollinco | 05-05-2026 05:30 | 11,6 | 98,2 | 0 | 0 | 0 | 0 | 0 |
| 22 | C. Llollinco | 05-05-2026 05:15 | 11,7 | 98,1 | 0,2 | 0 | 0 | 0 | 0 |
| 21 | C. Llollinco | 05-05-2026 05:00 | 11,7 | 98,1 | 0 | 0 | 0 | 0 | 0 |
| 20 | C. Llollinco | 05-05-2026 04:45 | 11,7 | 98,1 | 0 | 0 | 201 | 0 | 0 |
| 19 | C. Llollinco | 05-05-2026 04:30 | 11,7 | 98 | 0 | 0 | 0 | 0 | 0 |
| 18 | C. Llollinco | 05-05-2026 04:15 | 11,8 | 97,9 | 0 | 0 | 16 | 0 | 0 |
| 17 | C. Llollinco | 05-05-2026 04:00 | 11,8 | 97,9 | 0,1 | 0 | 0 | 0 | 0 |
| 16 | C. Llollinco | 05-05-2026 03:45 | 11,8 | 98 | 0 | 0 | 0 | 0 | 0 |
| 15 | C. Llollinco | 05-05-2026 03:30 | 11,8 | 97,9 | 0 | 0,1 | 26 | 0 | 0 |
| 14 | C. Llollinco | 05-05-2026 03:15 | 11,9 | 97,8 | 0 | 0 | 0 | 0 | 0 |
| 13 | C. Llollinco | 05-05-2026 03:00 | 11,9 | 97,7 | 0 | 0 | 0 | 0 | 0 |
| 12 | C. Llollinco | 05-05-2026 02:45 | 12 | 97,9 | 0 | 0 | 0 | 0 | 0 |
| 11 | C. Llollinco | 05-05-2026 02:30 | 12 | 97,7 | 0 | 0 | 169 | 0 | 0 |
| 10 | C. Llollinco | 05-05-2026 02:15 | 12,1 | 97,6 | 0 | 0 | 0 | 0 | 0 |
| 9 | C. Llollinco | 05-05-2026 02:00 | 12,2 | 97,6 | 0 | 0 | 0 | 0 | 0 |
| 8 | C. Llollinco | 05-05-2026 01:45 | 12,2 | 97,5 | 0 | 0 | 0 | 0 | 0 |
| 7 | C. Llollinco | 05-05-2026 01:30 | 12,2 | 97,4 | 0 | 0 | 0 | 0 | 0 |
| 6 | C. Llollinco | 05-05-2026 01:15 | 12,3 | 97,3 | 0 | 0 | 0 | 0 | 0 |
| 5 | C. Llollinco | 05-05-2026 01:00 | 12,4 | 97,2 | 0,1 | 0 | 42 | 0 | 0 |
| 4 | C. Llollinco | 05-05-2026 00:45 | 12,6 | 97,3 | 0 | 0,1 | 86 | 0 | 0 |
| 3 | C. Llollinco | 05-05-2026 00:30 | 12,6 | 97,1 | 0 | 0,8 | 46 | 0 | 0 |
| 2 | C. Llollinco | 05-05-2026 00:15 | 12,6 | 97,1 | 0 | 1,2 | 37 | 0 | 0 |
| 1 | C. Llollinco | 05-05-2026 00:00 | 12,6 | 97,1 | 0,1 | 1,6 | 39 | 0 | 0 |